Tracking 19636 objects as of 25-May-2019
HD Live streaming from Space Station
objects crossing your sky now

SL-3 R/B

Track SL-3 R/B now!
10-day predictions
SL-3 R/B is classified as:


NORAD ID: 14208
Int'l Code: 1983-075B
Perigee: 514.3 km
Apogee: 566.8 km
Inclination: 97.4 °
Period: 95.3 minutes
Semi major axis: 6911 km
RCS: 6.5943 m2 (large)
Launch date: July 24, 1983
Source: Commonwealth of Independent States (former USSR) (CIS)
Launch site: TYURATAM MISSILE AND SPACE COMPLEX (TTMTR)

Note: This is a ROCKET BODY
aabbcc
Your satellite tracking list
Your tracking list is empty




NASA's NSSDC Master Catalog

Two Line Element Set (TLE):
1 14208U 83075B   19144.92115991 +.00000255 +00000-0 +18843-4 0  9994
2 14208 097.3632 137.2916 0038020 209.8158 150.0907 15.10916245953904
Source of the keplerian elements: AFSPC